Temp_Advection
nan nan nan nan nan nan nan nan nan nan nan nan nan nan nan nan nan nan nan nan nan nan nan nan nan nan nan nan nan nan nan nan nan nan nan nan nan nan nan nan nan nan nan
nan 0 -0 -0 0 -0 0 0 -0 -0 -0 0 0 0 0 0 0 -0 -0 -0 -0 -0 -0 -0 0 0 -0 -0 -1 -0 -0 -0 -0 0 0 -0 -0 0 0 0 0 0 nan
nan 0 0 0 0 0 -0 -0 -0 -0 -0 -0 -0 -0 -0 -0 -0 -0 -0 -0 -0 -0 -0 -0 -0 0 0 0 -0 -1 -1 -1 -1 -1 -0 -0 -0 -0 -1 -0 -0 0 nan
nan 0 -0 -0 -0 -0 0 -0 -0 -0 -0 -0 -0 -1 -0 -0 -0 -0 -0 -0 -0 -0 -0 -0 -0 -0 -0 0 0 0 -0 -0 -0 -1 -1 -0 -0 -0 -0 -1 -0 -0 nan
nan -0 0 0 -0 -0 -0 -0 -0 -0 -1 -1 -1 -1 -0 -0 -0 -0 -0 -0 -0 -0 -0 -0 -0 -0 -0 -0 -0 0 0 -0 -1 -1 -1 -1 -0 -1 -1 -0 -0 -1 nan
nan -0 -0 -0 -0 -0 -0 -0 -0 -0 -0 -1 -1 -1 -0 -0 -0 -0 -0 -0 -0 -0 -0 -0 -0 -0 -0 -0 -0 -0 0 1 0 -1 -2 -2 -1 -1 -1 -1 -1 -1 nan
nan -0 -0 -0 -0 -0 -0 -1 -1 -1 -0 -1 -1 -2 -2 -1 -0 -1 -1 -1 -1 -1 -1 -1 -1 -1 -1 -1 -1 -1 -1 0 1 -0 -1 -1 -1 -1 -1 -1 -1 -1 nan
nan -0 -0 -0 -1 -0 -0 -0 -0 -1 -1 -0 -1 -2 -1 -2 -1 -1 -1 -1 -1 -1 -2 -2 -2 -2 -2 -2 -2 -2 -1 -2 -1 -1 -1 -1 -1 -2 -1 -1 -1 -1 nan
nan -0 -0 -0 -0 -0 -0 -0 -0 -0 -1 -0 0 -0 -0 -1 -4 -1 -2 -0 -1 -1 -2 -2 -2 -2 -1 -1 -2 -2 -1 -0 -1 -1 -1 -1 -1 -1 -1 -1 -1 -1 nan
nan -0 -0 -0 -0 -0 -0 -0 -0 -0 -0 -1 -0 0 0 0 -0 -2 -2 -3 -1 -2 -1 -1 -1 -1 -1 -1 -2 -1 -1 -1 -1 -1 -1 -1 -1 -1 -1 -1 -1 -1 nan
nan -0 -0 -0 -0 -0 -0 -0 -0 -0 -0 -0 -0 -0 -0 -0 0 0 -1 -2 -2 -2 -2 -1 -1 -1 -1 -1 -1 -1 -1 -1 -1 -1 -1 -1 -1 -1 -1 -0 -1 -1 nan
nan -0 -0 -0 -0 -0 -0 -0 -0 -0 -0 0 0 0 0 -0 -0 0 0 -0 -1 -1 -1 -1 -1 -1 -1 -1 -0 -1 -1 -1 -2 -1 -1 -1 -1 -1 -1 -0 -1 -1 nan
nan -0 -0 -0 -0 -0 -0 -0 -0 -0 -0 -0 0 0 0 0 0 0 -0 -0 -0 -0 -1 -0 -0 -0 -0 -1 -1 -1 -1 -0 -1 -1 -2 -2 -1 -1 -1 -1 -1 -1 nan
nan -0 -0 -0 -0 -0 -0 -0 -0 -0 -0 -0 -0 0 0 -0 -0 -0 -0 -0 -0 -1 -1 -0 -0 -0 -1 -1 -0 -1 -1 -1 -1 -1 -1 -1 -1 -1 -1 -1 -1 -1 nan
nan -0 -0 -0 -0 -0 -0 -0 -0 -0 -0 -0 -0 -0 -0 -0 -0 -0 -0 -0 -0 -0 -1 -1 -0 -0 -0 -0 -1 -0 -0 -1 -1 -1 -1 -1 -1 -1 -1 -1 -1 -1 nan
nan -0 -0 -0 -0 -0 -0 -0 -0 -0 -0 -0 -0 -0 -0 -0 -0 -0 -0 -1 -0 -0 -0 -0 -0 -0 -0 0 0 -0 -0 -1 -1 -1 -1 -1 -1 -1 -1 -1 -1 -1 nan
nan -0 -0 -0 -0 -0 -0 -0 -0 -0 -0 -1 -0 -0 -0 -1 -0 -0 -0 -1 -1 -0 -0 -0 -0 -0 -0 -0 -0 0 -0 -0 -1 -1 -1 -1 -1 -1 -1 -1 -1 -1 nan
nan -0 -0 -0 -0 -0 -0 -0 -0 -1 -0 -0 -1 -1 -1 -1 -0 -0 -0 -0 -0 -0 0 -0 -1 -0 -0 -0 0 -0 -0 -1 -0 -1 -1 -1 -1 -1 -1 -1 -1 -1 nan
nan -0 -0 -0 -0 -0 -0 -0 -0 -0 -0 -0 -0 -0 -1 -0 -1 -0 -0 -0 -0 -0 0 0 -0 -0 -0 -1 -0 -0 -0 -1 -1 -1 -1 -1 -1 -1 -1 -1 -1 -1 nan
nan -0 -0 -0 -0 -0 -0 -0 -0 -0 -0 -0 0 -0 -0 -0 -0 -0 -1 -0 -0 -0 -0 0 -0 -0 0 0 -1 -1 -0 -0 -0 -1 -1 -1 -1 -1 -1 -1 -1 -1 nan
nan -0 -0 -0 -0 -0 -0 -0 -0 -0 -0 -0 0 0 0 -0 -1 -1 -0 -0 -0 0 -0 -1 0 0 -0 -0 0 -0 -0 -0 -0 -0 -1 -0 -0 -1 -1 -1 -1 -1 nan
nan -0 -0 -0 -0 -0 0 -0 -0 -0 0 0 0 0 -0 -0 -0 -1 -1 -0 -0 -1 -0 -0 0 0 -0 -0 0 -0 -0 0 -0 -0 -0 -0 -1 -1 -0 -1 -1 -1 nan
nan -0 -0 -0 -0 -0 -0 -0 -0 -0 0 0 -0 -0 -0 0 -0 -1 -1 -0 0 -0 -1 -0 0 0 -0 -1 -0 0 0 -0 -0 -0 -0 -0 -0 -1 -1 -1 -1 -1 nan
nan -0 -0 -0 -1 -1 -0 -0 -0 -0 -0 -0 -0 -0 -0 -0 -0 -0 -0 -0 -0 0 -0 -0 -0 -0 -0 0 0 -0 -0 -0 -0 -0 0 -0 0 -1 -1 -0 -0 -0 nan
nan -0 -0 -0 -1 -1 -0 -1 -1 -1 -0 -0 -0 -0 -0 -0 -0 -0 -0 0 -0 -0 -0 0 -0 0 -0 -0 -0 -0 -0 -0 -0 -1 1 0 -1 -0 -1 -2 -1 0 nan
nan nan nan nan nan nan nan nan nan nan nan nan nan nan nan nan nan nan nan nan nan nan nan nan nan nan nan nan nan nan nan nan nan nan nan nan nan nan nan nan nan nan nan
Wind_Speed
3 4 4 4 7 10 12 12 12 12 11 13 12 13 14 15 17 19 20 20 21 22 23 24 26 25 26 27 27 26 26 28 31 35 39 39 36 38 38 40 43 43 43
5 3 3 7 8 9 11 11 12 11 12 14 15 15 16 16 17 20 22 19 21 18 20 22 23 24 25 24 25 27 27 30 29 30 32 37 41 40 38 40 42 45 47
5 5 6 7 7 8 7 8 11 13 15 16 17 17 17 18 19 19 19 16 14 14 15 14 13 14 16 19 21 26 30 30 31 33 32 33 34 39 44 44 42 42 47
9 7 5 4 4 6 9 12 16 18 19 20 20 19 19 15 13 10 12 13 14 18 20 21 19 16 17 17 18 17 18 22 22 23 26 29 32 34 35 40 47 49 48
5 2 1 4 7 11 13 16 17 18 19 19 19 19 17 11 10 15 17 18 19 21 22 21 21 20 21 24 26 27 29 30 29 30 32 35 37 36 37 35 35 38 48
4 3 6 9 12 14 16 17 17 17 18 19 20 20 18 10 18 10 21 17 19 19 18 19 21 22 24 31 34 34 35 36 33 31 31 33 32 32 32 33 35 40 42
4 7 10 13 16 17 17 18 18 18 19 23 26 28 22 22 6 25 16 26 17 17 20 23 28 31 31 30 32 36 39 42 39 31 26 26 27 30 31 32 33 34 34
7 11 15 17 19 18 17 17 18 20 20 22 24 23 15 21 12 28 21 20 16 24 29 29 30 29 33 30 28 28 33 33 34 29 28 29 29 30 30 31 31 30 30
9 13 16 18 20 19 18 17 18 20 22 21 20 16 10 10 41 12 33 10 32 26 36 33 33 32 26 31 36 37 26 30 34 32 33 34 34 33 32 34 34 34 32
9 13 16 19 20 19 18 17 17 18 20 23 23 22 19 23 28 23 17 43 25 38 37 37 37 29 32 34 38 26 34 35 34 35 35 35 35 35 34 34 35 34 33
9 14 18 20 20 19 18 18 18 18 20 21 22 26 27 30 31 31 35 29 37 37 41 35 36 39 34 34 28 35 38 35 37 39 37 36 37 38 38 39 40 38 37
11 14 17 20 20 18 18 18 19 20 21 22 24 24 25 29 32 34 40 41 38 36 31 33 34 31 29 24 36 37 26 33 37 39 40 40 41 41 40 42 42 42 41
13 16 19 20 19 18 18 19 20 22 24 26 27 28 28 29 29 33 37 41 38 41 39 37 29 26 28 34 30 26 36 42 34 36 38 41 40 41 41 41 41 42 44
14 17 20 20 18 18 19 21 23 25 27 29 30 29 28 28 30 35 35 37 46 43 41 37 34 33 34 27 35 41 36 32 39 39 40 39 39 38 39 39 39 41 41
15 18 19 18 17 19 21 23 26 28 30 31 31 31 28 31 36 35 34 35 36 40 45 47 40 38 36 40 40 34 38 41 41 38 38 38 38 38 39 38 39 41 41
17 18 18 18 18 20 23 26 28 30 31 32 32 30 32 36 41 37 34 31 34 36 44 46 46 42 46 45 43 37 42 39 40 40 37 36 36 38 40 44 43 44 42
17 18 18 18 20 23 25 28 30 31 33 32 32 33 38 42 40 35 34 32 31 32 36 54 47 48 49 50 51 48 44 42 39 36 34 38 42 43 47 44 42 40 41
17 17 17 19 22 25 28 30 31 32 31 33 36 40 40 41 36 31 28 31 34 38 38 39 48 48 47 51 46 46 43 40 40 37 43 43 47 46 40 41 41 40 39
16 16 18 21 25 28 30 31 32 31 31 35 37 40 41 35 30 28 30 35 37 36 32 33 42 46 46 41 40 44 44 43 43 42 40 43 41 38 34 37 42 39 38
16 17 20 24 27 30 31 32 31 32 32 35 38 39 36 30 28 31 34 34 31 35 37 38 43 39 38 38 40 46 48 41 45 44 42 39 32 30 41 37 36 35 34
16 19 24 26 28 30 31 31 31 30 32 35 37 37 34 28 27 27 29 36 38 40 40 40 36 38 40 45 44 43 44 47 49 41 35 37 42 45 44 38 34 31 32
18 22 25 27 29 30 31 29 27 29 32 34 36 36 34 31 28 30 33 32 32 37 43 38 40 40 44 44 43 46 43 38 47 39 35 49 40 44 41 40 33 35 40
21 24 26 28 29 31 30 28 27 29 32 33 34 37 37 35 32 38 38 36 39 38 35 37 39 41 42 45 45 41 45 43 43 46 42 48 39 44 43 41 37 36 36
24 26 27 28 30 30 30 27 27 29 31 33 35 33 34 34 37 36 40 42 44 38 36 35 37 39 41 40 45 42 41 46 45 42 35 43 42 45 45 43 36 35 35
26 27 28 30 31 31 29 27 27 29 32 33 31 29 31 36 36 37 40 44 38 38 42 36 35 35 39 36 33 37 40 40 40 40 43 40 43 46 44 43 37 21 23
27 28 30 30 30 31 32 26 25 28 31 34 36 38 38 35 37 37 37 38 40 44 42 37 43 42 36 37 32 32 37 38 39 41 39 38 40 40 32 33 26 34 35
Wind_Direction
224 244 264 291 303 302 300 296 295 298 299 301 307 310 310 312 315 306 303 302 303 300 303 302 300 301 303 300 292 293 296 296 292 284 280 279 279 273 264 260 261 263 262
241 238 258 278 282 286 279 283 299 306 317 316 315 309 302 299 303 305 311 306 306 306 314 311 303 298 298 300 304 300 300 298 294 295 292 283 280 277 275 269 262 259 260
181 214 241 258 267 268 293 305 310 315 314 310 308 307 304 300 301 305 302 311 319 319 313 320 326 325 323 316 309 304 301 297 295 293 291 290 285 280 276 273 270 267 261
185 192 235 256 291 310 319 318 318 320 318 318 319 319 322 325 317 320 324 320 316 314 313 321 321 317 312 312 315 331 327 323 319 313 304 304 297 290 285 277 273 271 268
198 226 73 355 331 327 325 324 327 329 331 331 334 335 339 336 320 317 311 310 310 313 313 311 308 308 309 310 305 303 307 305 300 298 296 296 294 301 294 287 281 278 269
111 32 1 344 337 336 331 332 337 342 344 339 338 338 345 347 326 331 329 326 326 319 315 314 309 301 295 298 301 300 299 299 313 313 307 300 294 291 292 293 290 288 284
48 10 358 353 350 346 345 344 345 347 350 345 343 343 346 342 318 334 336 340 326 326 315 305 300 301 303 297 289 288 289 289 302 317 318 312 305 299 298 296 286 284 286
25 13 6 1 357 352 346 345 347 349 351 355 353 352 343 349 316 338 330 333 323 316 318 323 324 322 319 316 314 309 304 310 307 316 316 312 308 303 300 299 297 293 295
18 10 6 0 354 349 345 345 345 346 345 345 351 359 342 323 326 323 332 320 318 323 323 325 326 319 315 310 306 308 303 299 301 307 309 307 305 303 295 293 294 288 288
2 0 357 355 351 345 340 341 340 340 337 337 337 339 326 317 321 316 308 321 324 319 324 321 321 316 304 316 310 308 304 297 303 305 303 300 300 299 299 296 296 298 296
358 354 351 348 342 338 334 331 330 332 335 333 332 327 323 321 321 313 309 310 315 315 318 316 313 314 314 318 309 300 301 305 306 305 302 299 296 296 294 292 290 293 291
350 346 344 341 337 333 330 330 330 329 328 326 325 321 318 317 317 314 310 309 308 308 308 305 308 307 313 302 298 308 310 306 306 304 299 297 296 295 291 289 290 291 289
336 339 340 337 334 331 328 326 325 326 326 324 323 320 316 311 313 309 311 306 306 308 307 306 306 309 303 306 312 296 297 303 302 303 300 297 295 295 293 290 288 287 285
333 336 334 331 329 328 326 326 326 325 324 322 320 317 313 312 310 310 309 309 307 305 306 305 308 309 313 308 301 308 308 301 302 301 299 297 296 293 295 293 290 288 286
332 331 329 330 330 329 327 326 326 324 322 321 319 317 314 311 312 310 305 303 303 303 305 306 309 312 308 310 310 309 305 308 304 301 299 297 295 292 294 292 292 290 288
330 329 330 331 331 329 328 326 325 323 321 322 321 317 313 311 312 309 306 300 296 300 299 303 306 307 310 314 311 306 308 309 305 302 300 297 295 295 294 293 290 289 286
329 331 331 331 331 330 329 326 325 325 325 321 320 316 312 312 314 310 307 306 306 304 298 301 303 309 312 312 311 312 309 307 302 298 298 298 295 292 296 292 288 286 284
332 330 330 332 331 329 328 327 327 326 324 322 316 314 317 320 317 315 316 315 310 306 301 295 301 307 304 310 303 312 308 307 303 299 298 296 294 293 291 288 287 285 285
329 331 332 332 332 331 330 330 327 325 320 315 316 317 320 322 319 319 318 314 312 310 303 296 299 302 299 308 308 308 305 303 299 298 298 300 296 291 290 292 290 286 283
333 333 332 333 333 332 331 329 325 320 318 316 315 318 323 322 322 320 315 312 311 310 307 302 299 302 305 311 310 308 306 304 303 303 301 302 294 291 294 293 289 285 282
332 333 334 334 333 331 330 327 323 321 316 313 314 321 326 325 314 312 312 311 309 306 303 304 299 311 313 312 310 308 303 305 305 305 306 300 300 300 303 302 293 288 289
333 335 334 333 332 330 330 328 322 316 313 313 316 323 330 329 322 315 315 311 308 308 306 313 312 310 308 308 306 303 299 309 306 307 306 300 303 303 302 300 293 288 289
334 334 334 332 331 332 331 327 323 316 312 315 319 324 324 325 320 321 321 313 310 308 306 309 305 304 304 305 308 312 309 303 300 302 306 300 302 297 300 300 294 293 287
334 335 333 333 333 333 333 327 324 319 318 317 322 323 322 322 321 320 316 313 311 320 318 311 308 304 306 308 306 304 302 301 302 302 301 293 299 295 305 304 300 296 289
334 333 334 335 335 335 334 332 328 319 316 320 324 322 322 320 321 318 313 317 321 320 323 313 308 307 307 307 306 306 306 306 302 302 308 294 298 299 302 306 312 303 288
332 333 334 334 334 335 337 335 331 328 327 325 322 322 326 322 321 317 321 327 325 321 318 318 313 315 318 322 315 311 309 303 301 301 315 300 301 304 301 303 303 305 305
Height
1509 1508 1508 1507 1507 1505 1504 1502 1500 1499 1497 1495 1494 1492 1490 1488 1487 1485 1484 1482 1480 1478 1476 1474 1472 1470 1469 1466 1465 1463 1462 1461 1459 1458 1456 1456 1455 1455 1456 1456 1457 1457 1457
1507 1507 1506 1505 1504 1502 1501 1499 1497 1495 1493 1491 1490 1488 1485 1484 1482 1480 1478 1475 1472 1471 1470 1468 1467 1465 1464 1462 1460 1458 1457 1455 1453 1451 1449 1448 1447 1446 1446 1447 1447 1448 1448
1504 1503 1503 1502 1501 1499 1498 1497 1495 1493 1490 1487 1485 1483 1481 1479 1477 1474 1471 1469 1468 1466 1465 1463 1462 1459 1459 1457 1455 1453 1451 1448 1446 1444 1442 1440 1439 1438 1437 1437 1437 1437 1438
1501 1501 1501 1501 1500 1498 1496 1494 1491 1489 1486 1482 1479 1477 1475 1474 1471 1469 1467 1466 1464 1462 1461 1459 1457 1455 1454 1451 1449 1446 1445 1443 1438 1436 1434 1432 1430 1429 1428 1427 1427 1427 1427
1501 1501 1501 1500 1498 1496 1493 1491 1488 1484 1481 1477 1474 1473 1471 1469 1466 1464 1463 1461 1460 1458 1456 1453 1451 1449 1447 1445 1442 1440 1437 1435 1433 1430 1427 1424 1423 1421 1420 1418 1416 1415 1414
1500 1500 1499 1498 1495 1493 1490 1487 1484 1482 1478 1474 1471 1469 1466 1465 1462 1461 1459 1457 1455 1453 1450 1447 1445 1443 1441 1438 1435 1433 1430 1427 1424 1421 1418 1416 1414 1412 1410 1410 1407 1406 1404
1499 1498 1497 1495 1493 1490 1487 1484 1481 1478 1475 1471 1466 1462 1461 1460 1457 1457 1453 1452 1450 1449 1447 1444 1441 1438 1435 1431 1429 1425 1422 1419 1415 1413 1410 1408 1405 1404 1402 1401 1398 1395 1394
1497 1496 1495 1493 1490 1488 1485 1482 1479 1476 1474 1470 1466 1460 1456 1454 1453 1452 1449 1448 1446 1444 1440 1437 1434 1431 1428 1424 1422 1419 1416 1413 1408 1405 1403 1401 1398 1396 1393 1391 1389 1387 1385
1495 1494 1493 1491 1488 1485 1483 1480 1477 1474 1471 1470 1468 1467 1462 1458 1449 1447 1444 1443 1441 1437 1434 1430 1428 1425 1422 1418 1415 1411 1408 1404 1400 1398 1395 1393 1390 1388 1386 1383 1380 1377 1375
1493 1492 1490 1488 1485 1483 1480 1478 1475 1473 1471 1468 1466 1466 1466 1463 1456 1440 1440 1436 1434 1430 1427 1424 1421 1419 1416 1411 1407 1403 1401 1396 1393 1391 1388 1386 1382 1379 1375 1373 1370 1366 1362
1491 1489 1487 1485 1482 1480 1478 1476 1474 1471 1469 1467 1465 1461 1459 1455 1452 1446 1430 1429 1428 1425 1421 1418 1415 1411 1407 1403 1400 1396 1393 1388 1384 1381 1378 1376 1373 1370 1367 1364 1360 1355 1352
1489 1487 1485 1483 1480 1477 1475 1473 1471 1469 1467 1464 1462 1459 1456 1452 1446 1442 1432 1423 1419 1416 1414 1412 1408 1404 1401 1397 1393 1389 1384 1380 1376 1372 1368 1366 1363 1360 1357 1353 1348 1345 1342
1486 1484 1482 1480 1477 1475 1473 1470 1468 1465 1463 1459 1456 1453 1450 1447 1443 1439 1432 1419 1411 1407 1403 1402 1400 1397 1394 1390 1385 1382 1377 1373 1368 1364 1360 1356 1352 1349 1346 1343 1339 1335 1331
1484 1482 1480 1478 1475 1472 1470 1467 1464 1461 1457 1454 1451 1447 1443 1441 1438 1434 1428 1421 1402 1398 1394 1391 1391 1388 1385 1382 1377 1373 1367 1363 1359 1355 1351 1347 1343 1339 1335 1333 1329 1325 1321
1482 1480 1477 1475 1472 1469 1466 1462 1459 1456 1452 1448 1444 1440 1437 1433 1430 1425 1421 1418 1411 1392 1381 1379 1380 1379 1376 1372 1367 1364 1359 1354 1349 1345 1341 1337 1333 1329 1325 1321 1317 1314 1309
1479 1476 1474 1471 1468 1466 1462 1458 1454 1451 1446 1442 1438 1434 1431 1427 1422 1417 1413 1409 1405 1398 1380 1377 1372 1370 1366 1361 1357 1354 1349 1344 1339 1334 1331 1326 1322 1318 1313 1310 1305 1301 1297
1475 1472 1470 1467 1465 1461 1458 1453 1449 1444 1439 1435 1431 1427 1423 1418 1412 1407 1404 1400 1395 1392 1384 1365 1365 1360 1355 1350 1345 1341 1338 1333 1328 1324 1321 1316 1311 1306 1301 1295 1291 1287 1284
1471 1469 1466 1464 1460 1456 1452 1447 1442 1438 1433 1428 1424 1420 1414 1409 1403 1399 1396 1392 1388 1384 1377 1368 1357 1352 1348 1342 1336 1331 1327 1323 1319 1314 1311 1304 1298 1292 1286 1282 1278 1274 1269
1467 1466 1463 1459 1455 1451 1446 1441 1437 1432 1428 1423 1418 1413 1407 1402 1396 1393 1389 1385 1380 1374 1369 1362 1351 1346 1339 1336 1328 1323 1317 1311 1307 1302 1297 1292 1286 1279 1274 1269 1265 1261 1257
1464 1462 1459 1454 1450 1445 1440 1435 1430 1426 1421 1417 1412 1408 1402 1396 1391 1387 1383 1379 1373 1367 1361 1354 1346 1337 1333 1328 1323 1314 1303 1301 1293 1289 1284 1277 1273 1268 1264 1258 1253 1249 1245
1460 1457 1454 1450 1445 1440 1435 1430 1425 1420 1415 1410 1406 1401 1397 1391 1387 1384 1379 1372 1366 1360 1353 1345 1337 1330 1324 1318 1313 1305 1297 1288 1279 1278 1271 1265 1262 1256 1249 1245 1240 1237 1234
1456 1453 1449 1444 1440 1436 1430 1425 1421 1415 1410 1405 1399 1395 1390 1386 1381 1377 1372 1367 1361 1353 1346 1338 1331 1324 1317 1311 1304 1296 1287 1281 1268 1272 1263 1251 1253 1242 1238 1234 1230 1227 1222
1453 1449 1444 1440 1435 1430 1425 1420 1415 1410 1404 1399 1394 1389 1383 1379 1375 1368 1362 1358 1352 1346 1341 1334 1325 1319 1310 1304 1296 1289 1282 1275 1267 1258 1256 1239 1241 1231 1227 1221 1217 1212 1208
1448 1443 1439 1435 1429 1425 1420 1415 1410 1404 1399 1393 1388 1383 1378 1372 1368 1363 1355 1348 1342 1335 1331 1326 1319 1311 1305 1298 1292 1284 1274 1265 1258 1252 1249 1234 1229 1220 1215 1209 1204 1199 1193
1443 1439 1434 1429 1425 1420 1414 1409 1404 1398 1392 1387 1383 1378 1374 1367 1362 1356 1348 1339 1331 1326 1322 1317 1310 1304 1297 1290 1284 1274 1266 1258 1248 1242 1236 1228 1219 1210 1205 1197 1191 1187 1184
1439 1434 1429 1426 1420 1414 1409 1404 1400 1393 1386 1381 1376 1371 1367 1363 1356 1349 1341 1333 1325 1319 1312 1305 1299 1292 1286 1279 1274 1268 1260 1251 1243 1233 1226 1221 1211 1206 1194 1188 1183 1180 1174